{"data":{"norad_id":66947,"epoch":"2026-05-24T21:03:23.971392Z","epoch_age_seconds":79448,"freshness":"FRESH","line1":"1 66947U 25286Y   26144.87736078  .00020922  00000+0  62873-3 0  9991","line2":"2 66947  53.1613   4.4048 0000979  79.2064 280.9049 15.34395119 27086","mean_motion":15.34395119,"eccentricity":9.79e-5,"inclination_deg":53.1613,"raan_deg":4.4048,"arg_perigee_deg":79.2064,"mean_anomaly_deg":280.9049,"bstar":0.00062873,"rev_number":2708,"period_min":93.848056616504,"perigee_km":462.0480279264,"apogee_km":463.38746728598,"semimajor_km":6840.8547476062,"source":"CELESTRAK","updated_at":"2026-05-25T13:38:21.390553Z"}}